HSNN4 Weather Reports


time (UTC)temp
C
wind
direction
speed
KPH
gust
KPH
rain 1hr
cm
rain 24hr
cm
rain mn
cm
humidity
%
barometer
mb
20260510230029 17 139 0.0 0.0 0.00 0.00 0.00 76 1012.7
20260510230024 17 88 0.0 0.0 0.00 0.00 0.00 83 1014.3
20260510224524 17 139 0.0 0.0 0.00 0.00 0.00 77 1012.7
20260510224522 17 88 0.0 0.0 0.00 0.08 0.00 84 1014.2
20260510223024 17 129 0.0 0.0 0.00 0.00 0.00 77 1012.5
20260510223021 17 88 0.0 0.0 0.00 0.08 0.00 83 1014.1
20260510221525 17 127 0.0 0.0 0.00 0.00 0.00 76 1012.6
20260510221520 17 88 0.0 0.0 0.00 0.08 0.00 82 1014.1
20260510220023 17 96 0.0 0.0 0.00 0.00 0.00 73 1012.4
20260510220021 17 88 0.0 0.0 0.00 0.08 0.00 80 1013.9
20260510214526 18 133 0.0 0.0 0.00 0.00 0.00 68 1012.6
20260510214521 17 87 0.0 0.0 0.00 0.30 0.00 76 1014.1
20260510213023 19 112 0.0 0.0 0.00 0.00 0.00 62 1012.4
20260510213013 19 87 0.0 0.0 0.00 0.30 0.00 70 1014.0
20260510211531 21 169 0.0 0.0 0.00 0.00 0.00 52 1012.2
20260510211512 21 89 0.0 3.2 0.00 0.30 0.00 60 1013.8
20260510210026 22 301 0.0 0.0 0.00 0.00 0.00 43 1011.7
20260510210014 22 113 0.0 6.4 0.00 0.30 0.00 53 1013.2
20260510204532 22 292 0.0 0.0 0.00 0.00 0.00 41 1011.6
20260510204512 22 112 3.2 9.7 0.00 0.33 0.00 50 1013.1
20260510203021 23 295 0.0 0.0 0.00 0.00 0.00 40 1011.4
20260510203008 23 136 3.2 8.0 0.00 0.33 0.00 49 1013.0
20260510201520 23 305 0.0 0.0 0.00 0.00 0.00 40 1011.2
20260510201508 23 104 0.0 6.4 0.00 0.33 0.00 50 1012.8
20260510200020 23 184 0.0 0.0 0.00 0.00 0.00 37 1011.4
20260510200008 23 162 4.8 16.1 0.00 0.33 0.00 47 1013.0
20260510194518 23 183 0.0 0.0 0.00 0.00 0.00 38 1011.5
20260510194506 24 135 3.2 8.0 0.00 0.33 0.00 47 1013.1
20260510193021 23 294 0.0 0.0 0.00 0.00 0.00 43 1011.4
20260510193005 24 133 3.2 8.0 0.00 0.33 0.00 52 1013.0
20260510191516 23 309 0.0 0.0 0.00 0.00 0.00 43 1011.7
20260510191502 24 132 3.2 14.5 0.00 0.33 0.00 52 1013.2
20260510190014 23 243 0.0 0.0 0.00 0.00 0.00 45 1011.5
20260510184600 23 136 1.6 9.7 0.00 0.41 0.00 55 1013.3
20260510184510 23 269 0.0 0.0 0.00 0.00 0.00 47 1011.7
20260510183058 23 120 1.6 11.3 0.00 0.41 0.00 55 1013.4
20260510183009 23 201 0.0 0.0 0.00 0.00 0.00 47 1011.8
20260510181556 23 70 0.0 4.8 0.00 0.41 0.00 57 1013.4
20260510181504 22 214 0.0 0.0 0.00 0.00 0.00 54 1011.7
20260510180107 23 84 0.0 0.0 0.00 0.41 0.00 60 1013.5
20260510180004 22 203 0.0 0.0 0.00 0.00 0.00 55 1011.7
20260510174554 23 88 0.0 3.2 0.00 0.41 0.00 61 1013.3
20260510174503 22 142 0.0 0.0 0.00 0.00 0.00 55 1011.5
20260510173050 23 76 0.0 0.0 0.00 0.41 0.00 60 1013.3
20260510173001 22 133 0.0 0.0 0.00 0.00 0.00 55 1011.5
20260510171621 21 151 0.0 0.0 0.00 0.00 0.00 61 1011.6
20260510171547 22 67 0.0 0.0 0.00 0.41 0.00 65 1013.4
20260510170057 20 104 0.0 0.0 0.00 0.00 0.00 62 1011.8
20260510170050 21 79 0.0 0.0 0.00 0.41 0.00 67 1013.5
20260510164600 20 123 0.0 0.0 0.00 0.00 0.00 65 1011.9
20260510164550 21 77 0.0 0.0 0.00 0.41 0.00 70 1013.7
20260510163057 19 143 0.0 0.0 0.00 0.00 0.00 66 1012.2
20260510163038 20 82 0.0 1.6 0.00 0.41 0.00 69 1014.0
20260510161547 18 167 0.0 0.0 0.00 0.00 0.00 70 1012.3
20260510161534 20 97 0.0 0.0 0.00 0.41 0.00 73 1014.2
20260510160043 18 110 0.0 0.0 0.00 0.00 0.00 70 1012.2
20260510160032 19 84 0.0 0.0 0.00 0.41 0.00 72 1014.1
20260510154544 19 105 0.0 0.0 0.00 0.41 0.00 74 1014.2
20260510154538 17 188 0.0 0.0 0.00 0.00 0.00 73 1012.3
20260510153039 17 156 0.0 0.0 0.00 0.00 0.00 75 1012.5
20260510153027 18 61 0.0 0.0 0.00 0.41 0.00 77 1014.4
20260510151528 16 157 0.0 0.0 0.00 0.00 0.00 80 1012.4
20260510151523 17 86 0.0 1.6 0.00 0.41 0.00 81 1014.3
20260510150025 15 109 0.0 0.0 0.00 0.00 0.00 82 1012.6
20260510150019 16 79 0.0 3.2 0.00 0.41 0.00 83 1014.4
20260510144522 16 58 0.0 0.0 0.00 0.41 0.00 84 1014.3
20260510144520 15 165 0.0 0.0 0.00 0.00 0.00 83 1012.4
20260510143014 14 155 0.0 0.0 0.00 0.00 0.00 85 1012.5
20260510143011 15 82 0.0 0.0 0.00 0.41 0.00 87 1014.3
20260510141513 14 169 0.0 0.0 0.00 0.00 0.00 85 1012.5
20260510141508 15 79 0.0 0.0 0.00 0.41 0.00 87 1014.3
20260510140007 13 126 0.0 0.0 0.00 0.00 0.00 86 1012.3
20260510140005 15 86 0.0 3.2 0.00 0.41 0.00 88 1014.1
20260510134505 14 68 0.0 1.6 0.00 0.41 0.00 88 1014.1
20260510134503 13 161 0.0 0.0 0.00 0.00 0.00 87 1012.2
20260510133004 15 86 0.0 0.0 0.00 0.41 0.00 89 1014.1
20260510133001 13 153 0.0 0.0 0.00 0.00 0.00 88 1012.3
20260510131600 13 147 0.0 0.0 0.00 0.00 0.00 89 1012.2
20260510131501 14 84 0.0 0.0 0.00 0.41 0.00 91 1014.0
20260510130122 13 78 0.0 0.0 0.00 0.41 0.00 93 1013.6
20260510130058 13 173 0.0 0.0 0.00 0.00 0.00 90 1011.8
20260510124603 13 78 0.0 1.6 0.00 0.41 0.00 93 1013.9
20260510123056 13 167 0.0 0.0 0.00 0.00 0.00 91 1011.7
20260510121555 12 48 0.0 0.0 0.00 0.00 0.00 91 1011.5
20260510121551 13 96 0.0 0.0 0.00 0.41 0.00 95 1013.3
20260510120055 12 23 0.0 0.0 0.00 0.00 0.00 91 1011.4
20260510120053 12 96 0.0 0.0 0.00 0.41 0.00 95 1013.3
20260510114617 12 23 0.0 0.0 0.00 0.00 0.00 92 1011.2
20260510114547 12 95 0.0 0.0 0.00 0.41 0.00 95 1013.0
20260510113057 12 23 0.0 0.0 0.00 0.00 0.00 92 1011.3
20260510113053 12 96 0.0 0.0 0.00 0.41 0.00 96 1013.1
20260510111552 12 22 0.0 0.0 0.00 0.00 0.00 92 1010.9
20260510111544 12 96 0.0 0.0 0.00 0.41 0.00 96 1012.8
20260510110043 11 96 0.0 0.0 0.00 0.41 0.00 96 1012.5
20260510104550 11 0 0.0 0.0 0.00 0.00 0.00 92 1010.7
20260510104540 11 101 0.0 0.0 0.00 0.41 0.00 96 1012.5
20260510103053 11 0 0.0 0.0 0.00 0.00 0.00 92 1010.7
20260510103041 11 102 0.0 0.0 0.00 0.41 0.00 96 1012.6
20260510101601 11 0 0.0 0.0 0.00 0.00 0.00 92 1010.7
20260510101544 11 102 0.0 0.0 0.00 0.41 0.00 96 1012.6
20260510100053 11 0 0.0 0.0 0.00 0.00 0.00 92 1010.7
20260510100038 11 102 0.0 0.0 0.00 0.41 0.00 96 1012.6
20260510094551 11 359 0.0 0.0 0.00 0.00 0.00 92 1010.9
20260510094538 11 115 0.0 0.0 0.00 0.41 0.00 96 1012.8
20260510093048 11 359 0.0 0.0 0.00 0.00 0.00 92 1011.1
20260510093038 11 116 0.0 0.0 0.00 0.41 0.00 96 1012.9
20260510091548 11 0 0.0 0.0 0.00 0.00 0.00 92 1011.2
20260510091542 11 117 0.0 1.6 0.00 0.41 0.00 96 1013.1
20260510090045 11 359 0.0 0.0 0.00 0.00 0.00 92 1011.2
20260510090039 11 118 0.0 3.2 0.00 0.41 0.00 96 1013.0
20260510084603 11 330 0.0 0.0 0.00 0.00 0.00 92 1011.2
20260510084541 11 117 0.0 1.6 0.00 0.41 0.00 96 1013.1
20260510083045 11 343 0.0 0.0 0.00 0.00 0.00 92 1010.9
20260510083032 11 119 0.0 3.2 0.00 0.41 0.00 96 1012.8
20260510081544 11 15 0.0 0.0 0.00 0.00 0.00 92 1010.5
20260510081530 11 110 0.0 0.0 0.00 0.41 0.00 96 1012.3
20260510080056 11 15 0.0 0.0 0.00 0.00 0.00 92 1010.2
20260510080033 11 110 0.0 0.0 0.00 0.41 0.00 96 1012.1
20260510074547 11 15 0.0 0.0 0.00 0.00 0.00 92 1010.2
20260510074531 11 110 0.0 0.0 0.00 0.41 0.00 96 1012.0
20260510073050 11 14 0.0 0.0 0.00 0.00 0.00 92 1010.1
20260510073029 11 110 0.0 0.0 0.00 0.41 0.00 96 1012.0
20260510071543 11 15 0.0 0.0 0.00 0.00 0.00 92 1010.2
20260510071526 11 110 0.0 0.0 0.00 0.41 0.00 96 1012.0
20260510070049 11 14 0.0 0.0 0.00 0.00 0.00 92 1010.2
20260510070025 11 110 0.0 1.6 0.00 0.41 0.00 96 1012.2
20260510064546 11 45 0.0 0.0 0.00 0.00 0.00 92 1010.2
20260510064538 11 87 0.0 0.0 0.00 0.41 0.00 96 1012.1
20260510063039 11 44 0.0 0.0 0.00 0.00 0.00 92 1010.0
20260510063026 11 87 0.0 0.0 0.00 0.41 0.00 96 1011.9
20260510061541 11 44 0.0 0.0 0.00 0.00 0.00 91 1009.7
20260510061521 11 88 0.0 0.0 0.00 0.41 0.00 96 1011.7
20260510060044 11 44 0.0 0.0 0.00 0.00 0.00 91 1009.8
20260510060019 11 87 0.0 0.0 0.00 0.41 0.00 96 1011.8
20260510054534 11 43 0.0 0.0 0.00 0.00 0.00 91 1010.1
20260510054518 10 87 0.0 0.0 0.00 0.41 0.00 96 1012.0
20260510053035 10 87 0.0 0.0 0.00 0.41 0.00 96 1011.9
20260510053032 11 43 0.0 0.0 0.00 0.00 0.00 91 1010.0
20260510051527 10 42 0.0 0.0 0.00 0.00 0.00 91 1010.0
20260510051515 10 87 0.0 0.0 0.00 0.41 0.00 96 1011.9
20260510050035 10 44 0.0 0.0 0.00 0.00 0.00 90 1010.2
20260510050015 10 87 0.0 0.0 0.00 0.41 0.00 95 1012.1
20260510044524 11 44 0.0 0.0 0.00 0.00 0.00 90 1010.2
20260510044511 10 87 0.0 0.0 0.00 0.41 0.00 96 1012.1
20260510043017 11 44 0.0 0.0 0.00 0.00 0.00 90 1010.2
20260510043010 10 87 0.0 0.0 0.00 0.41 0.00 95 1012.2
20260510041519 11 44 0.0 0.0 0.00 0.00 0.00 90 1010.2
20260510041506 10 87 0.0 0.0 0.00 0.41 0.00 95 1012.1
20260510040012 11 44 0.0 0.0 0.00 0.00 0.03 90 1010.1
20260510040004 11 87 0.0 0.0 0.00 0.41 0.00 95 1012.0
20260510034509 11 42 0.0 0.0 0.00 0.00 0.03 89 1009.8
20260510034504 10 88 0.0 0.0 0.00 0.41 0.41 95 1011.7
20260510033007 11 45 0.0 0.0 0.00 0.00 0.03 89 1009.8
20260510033002 11 87 0.0 0.0 0.00 0.41 0.41 95 1011.7
20260510031508 11 45 0.0 0.0 0.00 0.00 0.03 89 1009.8
20260510031502 11 87 0.0 0.0 0.00 0.41 0.41 95 1011.7
20260510030007 11 44 0.0 0.0 0.00 0.00 0.03 89 1009.8
20260510030003 11 87 0.0 0.0 0.00 0.41 0.41 95 1011.7
20260510024602 11 88 0.0 0.0 0.00 0.41 0.41 95 1011.7
20260510024505 11 44 0.0 0.0 0.00 0.00 0.03 89 1009.9
20260510023058 11 87 0.0 0.0 0.00 0.41 0.41 94 1011.9
20260510023004 11 43 0.0 0.0 0.00 0.00 0.03 88 1010.0
20260510021604 11 88 0.0 0.0 0.00 0.41 0.41 94 1011.8
20260510021512 11 44 0.0 0.0 0.00 0.00 0.03 88 1009.8
20260510020059 11 87 0.0 0.0 0.00 0.41 0.41 94 1011.8
20260510020003 12 43 0.0 0.0 0.00 0.00 0.03 88 1009.9
20260510014602 11 87 0.0 0.0 0.00 0.41 0.41 93 1011.7
20260510014502 11 45 0.0 0.0 0.00 0.00 0.03 88 1009.8
20260510013123 12 43 0.0 0.0 0.00 0.00 0.03 87 1009.8
20260510013112 11 87 0.0 0.0 0.00 0.41 0.41 93 1011.8
20260510013001 12 44 0.0 0.0 0.00 0.00 0.03 87 1009.8
20260510011600 12 43 0.0 0.0 0.00 0.00 0.03 87 1009.6
20260510011555 11 88 0.0 0.0 0.00 0.41 0.41 93 1011.5
20260510010055 11 87 0.0 0.0 0.00 0.41 0.41 93 1011.4
20260510004601 12 44 0.0 0.0 0.00 0.00 0.03 86 1009.5
20260510004551 11 87 0.0 0.0 0.00 0.41 0.41 92 1011.4
20260510003105 12 44 0.0 0.0 0.00 0.00 0.03 86 1009.2
20260510003102 12 87 0.0 0.0 0.00 0.41 0.41 92 1011.2
20260510001608 12 45 0.0 0.0 0.00 0.00 0.03 87 1009.2
20260510001550 12 88 0.0 0.0 0.00 0.41 0.41 92 1011.1
20260510000058 13 44 0.0 0.0 0.00 0.00 0.03 86 1009.1
20260509234556 13 44 0.0 0.0 0.00 0.00 0.03 86 1009.1
20260509234547 12 87 0.0 0.0 0.00 0.41 0.41 90 1011.0
20260509233101 13 43 0.0 0.0 0.00 0.00 0.03 85 1009.0
20260509233047 13 88 0.0 0.0 0.00 0.41 0.41 90 1010.8
20260509231603 13 45 0.0 0.0 0.00 0.00 0.03 85 1009.1
20260509231546 13 87 0.0 0.0 0.00 0.41 0.41 90 1011.0